Location: Arrien
(43.3167°N, 0.1500°W)
Time: 04:19:08
(UTC+00:00)

Okean 1 Rocket - Pass Details

Date: 15 October 2021
Orbit: 607 x 633 km, 82.5° (Epoch: 02 December)

Event Time Altitude Azimuth Distance (km) Brightness Sun altitude
Rises 18:13:59 0° 191° (S) 2,852 6.6 -11.0°
Reaches altitude 10° 18:16:11 10° 193° (SSW) 1,952 5.8 -11.4°
Maximum altitude 18:20:30 76° 278° (W) 632 3.2 -12.2°
Drops below altitude 10° 18:24:51 10° 5° (N) 1,971 5.6 -13.0°
Sets 18:27:06 0° 7° (N) 2,882 6.4 -13.4°
